,,Stat6,,Stat2,,Stat8,,Stat9,,Stat10,,Wind1,,Wind1,
time,status,PA1M_AVG,status,PR1M_SUM,status,RH1M_AVG,status,SR1M_AVG,status,TA1M_AVG,status,W1dAve1m,status,W1sAve1m,
2004-03-06, 00:00:00,VALID,917.818,VALID,0,VALID,96.6865,VALID,-0.0169808,VALID,19.7842,VALID,142,VALID,0.399325,
2004-03-06, 00:01:00,VALID,917.813,VALID,0,VALID,96.7348,VALID,-0.0339617,VALID,19.8036,VALID,148,VALID,0.0745739,
2004-03-06, 00:02:00,VALID,917.799,VALID,0,VALID,96.7081,VALID,-0.0339617,VALID,19.82,VALID,148,VALID,0.099564,
2004-03-06, 00:03:00,VALID,917.789,VALID,0,VALID,96.5758,VALID,0,VALID,19.8267,VALID,148,VALID,0.0125762,
2004-03-06, 00:04:00,VALID,917.784,VALID,0,VALID,96.0659,VALID,-0.0169808,VALID,19.7976,VALID,148,VALID,0.00130208,
2004-03-06, 00:05:00,VALID,917.767,VALID,0,VALID,95.9349,VALID,-0.0169808,VALID,19.7092,VALID,148,VALID,0.0632267,
2004-03-06, 00:06:00,VALID,917.742,VALID,0,VALID,96.0417,VALID,0,VALID,19.6838,VALID,122,VALID,0.391768,
2004-03-06, 00:07:00,VALID,917.744,VALID,0,VALID,96.0443,VALID,-0.0169808,VALID,19.6225,VALID,65,VALID,0.698847,
2004-03-06, 00:08:00,VALID,917.73,VALID,0,VALID,96.5707,VALID,-0.0339617,VALID,19.5971,VALID,65,VALID,0.752663,
2004-03-06, 00:09:00,VALID,917.721,VALID,0,VALID,96.8836,VALID,-0.0339617,VALID,19.5716,VALID,65,VALID,0.732558,
2004-03-06, 00:10:01,VALID,917.698,VALID,0,VALID,97.3986,VALID,-0.0679233,VALID,19.5748,VALID,65,VALID,0.465946,
2004-03-06, 00:11:01,VALID,917.68,VALID,0,VALID,97.4901,VALID,-0.0169808,VALID,19.6009,VALID,65,VALID,0.205305,
2004-03-06, 00:12:00,VALID,917.676,VALID,0,VALID,97.4049,VALID,0,VALID,19.5942,VALID,65,VALID,0.0207741,
2004-03-06, 00:13:00,VALID,917.655,VALID,0,VALID,97.4609,VALID,-0.0509425,VALID,19.5976,VALID,65,VALID,0.23247,
2004-03-06, 00:14:00,VALID,917.624,VALID,0,VALID,97.5232,VALID,-0.0339617,VALID,19.5845,VALID,65,VALID,0.00431743,
2004-03-06, 00:15:01,VALID,917.614,VALID,0,VALID,97.5893,VALID,0.0169808,VALID,19.5867,VALID,65,VALID,0.103871,
2004-03-06, 00:16:00,VALID,917.599,VALID,0,VALID,97.7495,VALID,0.0169808,VALID,19.6031,VALID,65,VALID,0.165334,
2004-03-06, 00:17:00,VALID,917.596,VALID,0,VALID,97.7788,VALID,0.0169808,VALID,19.6058,VALID,65,VALID,0.147529,
2004-03-06, 00:18:00,VALID,917.582,VALID,0,VALID,97.8004,VALID,0.0169808,VALID,19.6063,VALID,84,VALID,0.25,
2004-03-06, 00:19:00,VALID,917.56,VALID,0,VALID,97.8805,VALID,0.0169808,VALID,19.5959,VALID,151,VALID,0.325994,
2004-03-06, 00:20:00,VALID,917.542,VALID,0,VALID,97.9097,VALID,0,VALID,19.5932,VALID,151,VALID,0.124238,
2004-03-06, 00:21:00,VALID,917.53,VALID,0,VALID,97.9059,VALID,0.0509425,VALID,19.5897,VALID,151,VALID,0.0390625,
2004-03-06, 00:22:00,VALID,917.537,VALID,0,VALID,97.9466,VALID,0.0509425,VALID,19.5574,VALID,183,VALID,0.185547,
2004-03-06, 00:23:00,VALID,917.519,VALID,0,VALID,97.9059,VALID,0,VALID,19.5447,VALID,330,VALID,0.477325,
2004-03-06, 00:24:01,VALID,917.513,VALID,0,VALID,97.85,VALID,0.0339617,VALID,19.5316,VALID,342,VALID,0.31955,
2004-03-06, 00:25:00,VALID,917.495,VALID,0,VALID,97.8958,VALID,0.0169808,VALID,19.509,VALID,342,VALID,0.323047,
2004-03-06, 00:26:01,VALID,917.495,VALID,0,VALID,98.0636,VALID,0.0169808,VALID,19.5219,VALID,342,VALID,0.268466,
2004-03-06, 00:27:00,VALID,917.481,VALID,0,VALID,98.1564,VALID,0.0339617,VALID,19.5477,VALID,342,VALID,0.319293,
2004-03-06, 00:28:01,VALID,917.481,VALID,0,VALID,98.1857,VALID,0.0339617,VALID,19.5733,VALID,327,VALID,0.198847,
2004-03-06, 00:29:00,VALID,917.465,VALID,0,VALID,98.1145,VALID,0,VALID,19.6158,VALID,327,VALID,0.0203536,
2004-03-06, 00:30:00,VALID,917.436,VALID,0,VALID,97.8512,VALID,0.0169808,VALID,19.6153,VALID,327,VALID,0.0397569,
2004-03-06, 00:31:00,VALID,917.421,VALID,0,VALID,97.8029,VALID,0.0339617,VALID,19.6289,VALID,327,VALID,0.211496,
2004-03-06, 00:32:00,VALID,917.402,VALID,0,VALID,97.766,VALID,0,VALID,19.6451,VALID,275,VALID,0.455983,
2004-03-06, 00:33:00,VALID,917.4,VALID,0,VALID,97.6185,VALID,0,VALID,19.6804,VALID,254,VALID,0,
2004-03-06, 00:34:00,VALID,917.397,VALID,0,VALID,97.4164,VALID,0.0169808,VALID,19.6709,VALID,254,VALID,0.0729802,
2004-03-06, 00:35:00,VALID,917.383,VALID,0,VALID,97.3744,VALID,0,VALID,19.6742,VALID,254,VALID,0,
2004-03-06, 00:36:00,VALID,917.371,VALID,0,VALID,97.2294,VALID,0.0169808,VALID,19.6612,VALID,258,VALID,0.367006,
2004-03-06, 00:37:00,VALID,917.359,VALID,0,VALID,97.2688,VALID,0,VALID,19.6905,VALID,269,VALID,0.572218,
2004-03-06, 00:38:00,VALID,917.363,VALID,0,VALID,97.2447,VALID,0.0169808,VALID,19.735,VALID,268,VALID,0.421342,
2004-03-06, 00:39:00,VALID,917.356,VALID,0,VALID,96.9688,VALID,0,VALID,19.771,VALID,238,VALID,0.0459872,
2004-03-06, 00:40:00,VALID,917.348,VALID,0,VALID,96.572,VALID,0.0339617,VALID,19.777,VALID,238,VALID,0.00746528,
2004-03-06, 00:41:00,VALID,917.346,VALID,0,VALID,95.982,VALID,0.0169808,VALID,19.7611,VALID,239,VALID,0.34032,
2004-03-06, 00:42:01,VALID,917.329,VALID,0,VALID,95.659,VALID,0.0169808,VALID,19.7,VALID,13,VALID,0.462843,
2004-03-06, 00:43:00,VALID,917.325,VALID,0,VALID,95.7747,VALID,0.0169808,VALID,19.6391,VALID,16,VALID,0.242773,
2004-03-06, 00:44:01,VALID,917.3,VALID,0,VALID,96.0939,VALID,0,VALID,19.587,VALID,16,VALID,0.0435014,
2004-03-06, 00:45:01,VALID,917.293,VALID,0,VALID,96.455,VALID,0.0339617,VALID,19.5971,VALID,16,VALID,0.191883,
2004-03-06, 00:46:01,VALID,917.276,VALID,0,VALID,96.998,VALID,0,VALID,19.6255,VALID,16,VALID,0.374112,
2004-03-06, 00:47:00,VALID,917.266,VALID,0,VALID,97.1226,VALID,0.0169808,VALID,19.6545,VALID,16,VALID,0.474382,
2004-03-06, 00:48:00,VALID,917.262,VALID,0,VALID,96.998,VALID,0.0169808,VALID,19.6804,VALID,16,VALID,0.343006,
2004-03-06, 00:49:00,VALID,917.253,VALID,0,VALID,96.7589,VALID,0,VALID,19.6709,VALID,16,VALID,0.202257,
2004-03-06, 00:50:00,VALID,917.239,VALID,0,VALID,96.2465,VALID,0.0339617,VALID,19.619,VALID,16,VALID,0.282292,
2004-03-06, 00:51:01,VALID,917.233,VALID,0,VALID,96.2452,VALID,0,VALID,19.5738,VALID,16,VALID,0.0680804,
2004-03-06, 00:52:01,VALID,917.229,VALID,0,VALID,96.4944,VALID,0,VALID,19.5477,VALID,16,VALID,0,
2004-03-06, 00:53:01,VALID,917.216,VALID,0,VALID,96.6419,VALID,0,VALID,19.538,VALID,16,VALID,0,
2004-03-06, 00:54:00,VALID,917.19,VALID,0,VALID,96.7246,VALID,0,VALID,19.5422,VALID,16,VALID,0,
2004-03-06, 00:55:00,VALID,917.186,VALID,0,VALID,96.8276,VALID,0.0169808,VALID,19.5388,VALID,16,VALID,0,
2004-03-06, 00:56:00,VALID,917.16,VALID,0,VALID,96.8772,VALID,0,VALID,19.535,VALID,16,VALID,0,
2004-03-06, 00:57:00,VALID,917.142,VALID,0,VALID,96.9395,VALID,0,VALID,19.5579,VALID,16,VALID,0,
2004-03-06, 00:58:01,VALID,917.125,VALID,0,VALID,96.8874,VALID,0,VALID,19.5713,VALID,16,VALID,0,
2004-03-06, 00:59:00,VALID,917.11,VALID,0,VALID,96.8327,VALID,0.0169808,VALID,19.5577,VALID,16,VALID,0,
2004-03-06, 01:00:00,VALID,917.099,VALID,0,VALID,96.7767,VALID,0,VALID,19.5616,VALID,16,VALID,0,
2004-03-06, 01:01:00,VALID,917.08,VALID,0,VALID,96.6229,VALID,-0.0169808,VALID,19.5427,VALID,16,VALID,0,
2004-03-06, 01:02:01,VALID,917.078,VALID,0,VALID,96.5733,VALID,-0.0339617,VALID,19.5296,VALID,16,VALID,0.0317827,
2004-03-06, 01:03:01,VALID,917.071,VALID,0,VALID,96.5567,VALID,-0.0169808,VALID,19.504,VALID,16,VALID,0.0770089,
2004-03-06, 01:04:00,VALID,917.073,VALID,0,VALID,96.5974,VALID,0,VALID,19.4747,VALID,24,VALID,0.771307,
2004-03-06, 01:05:01,VALID,917.08,VALID,0,VALID,96.7551,VALID,0,VALID,19.4459,VALID,41,VALID,1.08221,
2004-03-06, 01:06:01,VALID,917.065,VALID,0,VALID,96.9611,VALID,0,VALID,19.4551,VALID,57,VALID,0.784702,
2004-03-06, 01:07:00,VALID,917.058,VALID,0,VALID,96.8594,VALID,0.0169808,VALID,19.4781,VALID,52,VALID,0.646257,
2004-03-06, 01:08:01,VALID,917.057,VALID,0,VALID,96.8746,VALID,0.0169808,VALID,19.4777,VALID,65,VALID,0.537287,
2004-03-06, 01:09:01,VALID,917.044,VALID,0,VALID,96.7996,VALID,0.0339617,VALID,19.4873,VALID,44,VALID,0.651456,
2004-03-06, 01:10:01,VALID,917.017,VALID,0,VALID,96.984,VALID,0,VALID,19.5035,VALID,90,VALID,0.894245,
2004-03-06, 01:11:00,VALID,917.002,VALID,0,VALID,97.0629,VALID,0,VALID,19.5457,VALID,80,VALID,0.616097,
2004-03-06, 01:12:01,VALID,916.982,VALID,0,VALID,96.8568,VALID,0.0169808,VALID,19.5812,VALID,101,VALID,0.47433,
2004-03-06, 01:13:00,VALID,916.959,VALID,0,VALID,96.703,VALID,0.0169808,VALID,19.5971,VALID,78,VALID,0.711664,
2004-03-06, 01:14:01,VALID,916.936,VALID,0,VALID,96.5962,VALID,0,VALID,19.6063,VALID,99,VALID,0.655297,
2004-03-06, 01:15:01,VALID,916.921,VALID,0,VALID,96.5072,VALID,0,VALID,19.6197,VALID,89,VALID,0.339177,
2004-03-06, 01:16:00,VALID,916.906,VALID,0,VALID,96.4614,VALID,-0.0169808,VALID,19.6262,VALID,97,VALID,0.791606,
2004-03-06, 01:17:00,VALID,916.88,VALID,0,VALID,96.5949,VALID,0.0169808,VALID,19.6525,VALID,110,VALID,1.19358,
2004-03-06, 01:18:01,VALID,916.883,VALID,0,VALID,96.5237,VALID,0,VALID,19.6881,VALID,104,VALID,1.24238,
2004-03-06, 01:19:01,VALID,916.86,VALID,0,VALID,96.3202,VALID,0,VALID,19.7045,VALID,55,VALID,0.709201,
2004-03-06, 01:20:00,VALID,916.857,VALID,0,VALID,96.4232,VALID,-0.0169808,VALID,19.6905,VALID,106,VALID,1.33576,
2004-03-06, 01:21:00,VALID,916.836,VALID,0,VALID,96.2808,VALID,0,VALID,19.7367,VALID,90,VALID,1.2117,
2004-03-06, 01:22:00,VALID,916.808,VALID,0,VALID,96.2045,VALID,0,VALID,19.7457,VALID,75,VALID,0.825347,
2004-03-06, 01:23:00,VALID,916.778,VALID,0,VALID,96.1689,VALID,0,VALID,19.7782,VALID,79,VALID,0.820131,
2004-03-06, 01:24:01,VALID,916.755,VALID,0,VALID,96.029,VALID,0,VALID,19.7847,VALID,89,VALID,0.649554,
2004-03-06, 01:25:01,VALID,916.73,VALID,0,VALID,96.118,VALID,0,VALID,19.7817,VALID,132,VALID,1.21989,
2004-03-06, 01:26:00,VALID,916.715,VALID,0,VALID,96.0074,VALID,0,VALID,19.7849,VALID,99,VALID,1.25182,
2004-03-06, 01:27:01,VALID,916.689,VALID,0,VALID,95.9629,VALID,-0.0169808,VALID,19.8041,VALID,108,VALID,1.25363,
2004-03-06, 01:28:01,VALID,916.668,VALID,0,VALID,95.8205,VALID,-0.0169808,VALID,19.8202,VALID,118,VALID,1.48837,
2004-03-06, 01:29:01,VALID,916.649,VALID,0,VALID,95.7785,VALID,0.0169808,VALID,19.8297,VALID,115,VALID,1.37891,
2004-03-06, 01:30:01,VALID,916.634,VALID,0,VALID,95.8179,VALID,-0.0679233,VALID,19.8371,VALID,109,VALID,1.25872,
2004-03-06, 01:31:01,VALID,916.627,VALID,0,VALID,95.8383,VALID,-0.101885,VALID,19.8282,VALID,73,VALID,0.8254,
2004-03-06, 01:32:01,VALID,916.63,VALID,0,VALID,95.912,VALID,-0.169808,VALID,19.7989,VALID,87,VALID,0.683685,
2004-03-06, 01:33:01,VALID,916.614,VALID,0,VALID,96.0786,VALID,-0.101885,VALID,19.7897,VALID,58,VALID,1.24659,
2004-03-06, 01:34:01,VALID,916.611,VALID,0,VALID,96.1117,VALID,-0.101885,VALID,19.7862,VALID,57,VALID,0.927973,
2004-03-06, 01:35:01,VALID,916.599,VALID,0,VALID,96.1079,VALID,-0.101885,VALID,19.7569,VALID,58,VALID,0.842416,
2004-03-06, 01:36:01,VALID,916.584,VALID,0,VALID,96.2808,VALID,-0.118866,VALID,19.7315,VALID,97,VALID,0.894985,
2004-03-06, 01:37:01,VALID,916.59,VALID,0,VALID,96.4448,VALID,-0.101885,VALID,19.7251,VALID,78,VALID,0.992374,
2004-03-06, 01:38:01,VALID,916.573,VALID,0,VALID,96.53,VALID,-0.101885,VALID,19.7087,VALID,31,VALID,1.54116,
2004-03-06, 01:39:01,VALID,916.559,VALID,0,VALID,96.6839,VALID,-0.101885,VALID,19.6761,VALID,36,VALID,1.38477,
2004-03-06, 01:40:01,VALID,916.549,VALID,0,VALID,96.7526,VALID,-0.101885,VALID,19.6635,VALID,86,VALID,0.701427,
2004-03-06, 01:41:01,VALID,916.53,VALID,0,VALID,96.8022,VALID,-0.101885,VALID,19.6411,VALID,82,VALID,0.90253,
2004-03-06, 01:42:01,VALID,916.497,VALID,0,VALID,96.8874,VALID,-0.101885,VALID,19.6187,VALID,43,VALID,1.1076,
2004-03-06, 01:43:01,VALID,916.486,VALID,0,VALID,97.0107,VALID,-0.101885,VALID,19.5857,VALID,68,VALID,1.25,
2004-03-06, 01:44:01,VALID,916.487,VALID,0,VALID,97.0997,VALID,-0.101885,VALID,19.5668,VALID,67,VALID,0.891897,
2004-03-06, 01:45:01,VALID,916.478,VALID,0,VALID,97.1379,VALID,-0.0339617,VALID,19.5559,VALID,56,VALID,1.48945,
2004-03-06, 01:46:01,VALID,916.47,VALID,0,VALID,97.0069,VALID,0.0169808,VALID,19.5492,VALID,54,VALID,1.16673,
2004-03-06, 01:47:01,VALID,916.469,VALID,0,VALID,96.8886,VALID,0,VALID,19.5226,VALID,83,VALID,1.57885,
2004-03-06, 01:48:01,VALID,916.464,VALID,0,VALID,96.5771,VALID,0,VALID,19.5653,VALID,66,VALID,1.07088,
2004-03-06, 01:49:01,VALID,916.446,VALID,0,VALID,96.2261,VALID,0,VALID,19.5875,VALID,71,VALID,1.38045,
2004-03-06, 01:50:01,VALID,916.442,VALID,0,VALID,95.7531,VALID,-0.0339617,VALID,19.6265,VALID,86,VALID,1.3125,
2004-03-06, 01:51:01,VALID,916.425,VALID,0,VALID,95.2623,VALID,0,VALID,19.6786,VALID,76,VALID,1.58803,
2004-03-06, 01:52:01,VALID,916.403,VALID,0,VALID,94.7854,VALID,0,VALID,19.739,VALID,77,VALID,1.47983,
2004-03-06, 01:53:01,VALID,916.401,VALID,0,VALID,94.4294,VALID,0,VALID,19.8006,VALID,69,VALID,1.06545,
2004-03-06, 01:54:01,VALID,916.404,VALID,0,VALID,94.156,VALID,0.0169808,VALID,19.8326,VALID,94,VALID,1.39565,
2004-03-06, 01:55:01,VALID,916.39,VALID,0,VALID,93.9894,VALID,-0.0169808,VALID,19.859,VALID,59,VALID,1.47958,
2004-03-06, 01:56:01,VALID,916.375,VALID,0,VALID,93.7592,VALID,0,VALID,19.8851,VALID,79,VALID,1.36573,
2004-03-06, 01:57:01,VALID,916.366,VALID,0,VALID,93.4922,VALID,0.0169808,VALID,19.9365,VALID,86,VALID,1.55729,
2004-03-06, 01:58:01,VALID,916.36,VALID,0,VALID,93.1412,VALID,-0.0169808,VALID,19.9849,VALID,86,VALID,1.26086,
2004-03-06, 01:59:01,VALID,916.36,VALID,0,VALID,92.878,VALID,0,VALID,20.0307,VALID,100,VALID,1.29371,
2004-03-06, 02:00:01,VALID,916.363,VALID,0,VALID,92.6567,VALID,-0.0169808,VALID,20.0522,VALID,107,VALID,1.00107,
2004-03-06, 02:01:00,VALID,916.361,VALID,0,VALID,92.6262,VALID,-0.0169808,VALID,20.0721,VALID,76,VALID,1.20851,
2004-03-06, 02:02:00,VALID,916.35,VALID,0,VALID,92.5436,VALID,-0.0339617,VALID,20.0754,VALID,107,VALID,1.74805,
2004-03-06, 02:03:00,VALID,916.338,VALID,0,VALID,92.3579,VALID,-0.0509425,VALID,20.1044,VALID,106,VALID,1.64825,
2004-03-06, 02:04:00,VALID,916.331,VALID,0,VALID,92.3185,VALID,-0.0339617,VALID,20.1144,VALID,99,VALID,1.29937,
2004-03-06, 02:05:00,VALID,916.319,VALID,0,VALID,92.1392,VALID,-0.0509425,VALID,20.127,VALID,111,VALID,1.95985,
2004-03-06, 02:06:00,VALID,916.323,VALID,0,VALID,91.9777,VALID,-0.0169808,VALID,20.1725,VALID,79,VALID,1.17461,
2004-03-06, 02:07:00,VALID,916.31,VALID,0,VALID,91.9713,VALID,-0.0849042,VALID,20.1757,VALID,107,VALID,1.2002,
2004-03-06, 02:08:00,VALID,916.3,VALID,0,VALID,92.0057,VALID,-0.0679233,VALID,20.1666,VALID,100,VALID,1.28524,
2004-03-06, 02:09:00,VALID,916.297,VALID,0,VALID,92.0654,VALID,-0.0509425,VALID,20.1566,VALID,93,VALID,1.27269,
2004-03-06, 02:10:00,VALID,916.296,VALID,0,VALID,92.1303,VALID,-0.0509425,VALID,20.1208,VALID,73,VALID,1.37791,
2004-03-06, 02:11:00,VALID,916.276,VALID,0,VALID,91.9446,VALID,-0.0849042,VALID,20.1275,VALID,109,VALID,2.17533,
2004-03-06, 02:12:00,VALID,916.264,VALID,0,VALID,91.6623,VALID,-0.0849042,VALID,20.1792,VALID,90,VALID,1.2658,
2004-03-06, 02:13:00,VALID,916.249,VALID,0,VALID,91.5962,VALID,-0.0509425,VALID,20.2013,VALID,86,VALID,0.843395,
2004-03-06, 02:14:00,VALID,916.238,VALID,0,VALID,91.6344,VALID,-0.0339617,VALID,20.1822,VALID,68,VALID,0.491629,
2004-03-06, 02:15:00,VALID,916.213,VALID,0,VALID,91.6547,VALID,0.0509425,VALID,20.1548,VALID,109,VALID,1.06348,
2004-03-06, 02:16:00,VALID,916.199,VALID,0,VALID,91.6573,VALID,0.0849042,VALID,20.1538,VALID,113,VALID,0.912153,
2004-03-06, 02:17:00,VALID,916.185,VALID,0,VALID,91.6789,VALID,0.0679233,VALID,20.1578,VALID,85,VALID,0.834985,
2004-03-06, 02:18:00,VALID,916.179,VALID,0,VALID,91.6852,VALID,0.0849042,VALID,20.1414,VALID,88,VALID,0.892721,
2004-03-06, 02:19:00,VALID,916.166,VALID,0,VALID,91.7946,VALID,0.0849042,VALID,20.1258,VALID,93,VALID,1.17168,
2004-03-06, 02:20:00,VALID,916.145,VALID,0,VALID,91.7895,VALID,0.0509425,VALID,20.1027,VALID,122,VALID,1.4516,
2004-03-06, 02:21:00,VALID,916.153,VALID,0,VALID,91.8989,VALID,0.0849042,VALID,20.0957,VALID,115,VALID,0.998047,
2004-03-06, 02:22:00,VALID,916.146,VALID,0,VALID,92.0718,VALID,0.0849042,VALID,20.0801,VALID,109,VALID,1.46302,
2004-03-06, 02:23:00,VALID,916.139,VALID,0,VALID,92.1239,VALID,0.0679233,VALID,20.0773,VALID,102,VALID,1.55851,
2004-03-06, 02:24:00,VALID,916.122,VALID,0,VALID,92.1036,VALID,0.0339617,VALID,20.0642,VALID,112,VALID,1.41101,
2004-03-06, 02:25:00,VALID,916.11,VALID,0,VALID,91.9497,VALID,0.101885,VALID,20.0671,VALID,113,VALID,1.70313,
2004-03-06, 02:26:00,VALID,916.094,VALID,0,VALID,91.7819,VALID,0.101885,VALID,20.0932,VALID,99,VALID,1.48219,
2004-03-06, 02:27:00,VALID,916.078,VALID,0,VALID,91.5911,VALID,0.0849042,VALID,20.1156,VALID,95,VALID,1.86646,
2004-03-06, 02:28:00,VALID,916.049,VALID,0,VALID,91.3826,VALID,0.0849042,VALID,20.1347,VALID,105,VALID,1.32369,
2004-03-06, 02:29:00,VALID,916.022,VALID,0,VALID,91.1918,VALID,0.0679233,VALID,20.1705,VALID,106,VALID,1.56499,
2004-03-06, 02:30:00,VALID,916.008,VALID,0,VALID,91.0494,VALID,-0.0169808,VALID,20.1944,VALID,115,VALID,1.40789,
2004-03-06, 02:31:00,VALID,915.98,VALID,0,VALID,90.9019,VALID,-0.0169808,VALID,20.2142,VALID,111,VALID,1.64276,
2004-03-06, 02:32:00,VALID,915.967,VALID,0,VALID,90.8155,VALID,0,VALID,20.2207,VALID,103,VALID,1.21261,
2004-03-06, 02:33:00,VALID,915.949,VALID,0,VALID,90.8498,VALID,-0.0169808,VALID,20.2234,VALID,103,VALID,1.23783,
2004-03-06, 02:34:00,VALID,915.934,VALID,0,VALID,90.8549,VALID,-0.0509425,VALID,20.2239,VALID,104,VALID,1.5891,
2004-03-06, 02:35:00,VALID,915.916,VALID,0,VALID,90.7862,VALID,-0.0339617,VALID,20.2239,VALID,96,VALID,1.43041,
2004-03-06, 02:36:00,VALID,915.908,VALID,0,VALID,89.7092,VALID,-0.0169808,VALID,20.2301,VALID,86,VALID,2.28906,
2004-03-06, 02:37:00,VALID,915.883,VALID,0,VALID,89.713,VALID,-0.0679233,VALID,20.2885,VALID,80,VALID,1.97329,
2004-03-06, 02:38:00,VALID,915.885,VALID,0,VALID,89.6659,VALID,-0.0169808,VALID,20.3176,VALID,95,VALID,1.99275,
2004-03-06, 02:39:00,VALID,915.897,VALID,0,VALID,89.5426,VALID,-0.0509425,VALID,20.3268,VALID,98,VALID,1.75438,
2004-03-06, 02:40:00,VALID,915.907,VALID,0,VALID,89.4027,VALID,-0.0339617,VALID,20.3338,VALID,111,VALID,1.89948,
2004-03-06, 02:41:00,VALID,915.884,VALID,0,VALID,89.6291,VALID,-0.0509425,VALID,20.3432,VALID,105,VALID,1.53739,
2004-03-06, 02:42:00,VALID,915.879,VALID,0,VALID,89.802,VALID,-0.0679233,VALID,20.3241,VALID,108,VALID,1.53946,
2004-03-06, 02:43:00,VALID,915.877,VALID,0,VALID,90.1784,VALID,-0.0339617,VALID,20.2856,VALID,107,VALID,1.68121,
2004-03-06, 02:44:00,VALID,915.856,VALID,0,VALID,90.3259,VALID,-0.0169808,VALID,20.2495,VALID,103,VALID,2.12424,
2004-03-06, 02:45:00,VALID,915.86,VALID,0,VALID,90.4899,VALID,-0.0339617,VALID,20.2366,VALID,107,VALID,1.35245,
2004-03-06, 02:46:00,VALID,915.862,VALID,0,VALID,90.6425,VALID,0,VALID,20.2175,VALID,107,VALID,1.9084,
2004-03-06, 02:47:00,VALID,915.851,VALID,0,VALID,90.7442,VALID,0,VALID,20.1814,VALID,108,VALID,1.60992,
2004-03-06, 02:48:00,VALID,915.849,VALID,0,VALID,90.743,VALID,-0.0169808,VALID,20.1616,VALID,110,VALID,1.43322,
2004-03-06, 02:49:00,VALID,915.875,VALID,0,VALID,90.7392,VALID,-0.0169808,VALID,20.1459,VALID,98,VALID,1.72414,
2004-03-06, 02:50:00,VALID,915.883,VALID,0,VALID,90.729,VALID,-0.0339617,VALID,20.1395,VALID,100,VALID,1.29088,
2004-03-06, 02:51:00,VALID,915.882,VALID,0,VALID,90.654,VALID,-0.0169808,VALID,20.1362,VALID,114,VALID,1.68223,
2004-03-06, 02:52:00,VALID,915.878,VALID,0,VALID,90.584,VALID,0,VALID,20.1526,VALID,119,VALID,1.30393,
2004-03-06, 02:53:00,VALID,915.871,VALID,0,VALID,90.5344,VALID,-0.0339617,VALID,20.14,VALID,127,VALID,1.87083,
2004-03-06, 02:54:00,VALID,915.868,VALID,0,VALID,90.5777,VALID,-0.0339617,VALID,20.1397,VALID,112,VALID,1.28258,
2004-03-06, 02:55:00,VALID,915.877,VALID,0,VALID,90.7582,VALID,0,VALID,20.1265,VALID,73,VALID,1.17092,
2004-03-06, 02:56:00,VALID,915.884,VALID,0,VALID,90.7303,VALID,-0.0339617,VALID,20.1072,VALID,80,VALID,1.1855,
2004-03-06, 02:57:00,VALID,915.873,VALID,0,VALID,90.4073,VALID,-0.0339617,VALID,20.1109,VALID,115,VALID,1.81359,
2004-03-06, 02:58:00,VALID,915.885,VALID,0,VALID,90.111,VALID,-0.0169808,VALID,20.1623,VALID,104,VALID,1.1439,
2004-03-06, 02:59:00,VALID,915.849,VALID,0,VALID,89.746,VALID,-0.0339617,VALID,20.1981,VALID,106,VALID,1.80413,
2004-03-06, 03:00:00,VALID,915.834,VALID,0,VALID,89.3557,VALID,-0.0169808,VALID,20.2495,VALID,96,VALID,1.62809,
2004-03-06, 03:01:00,VALID,915.829,VALID,0,VALID,88.9678,VALID,0.0339617,VALID,20.2942,VALID,101,VALID,1.31387,
2004-03-06, 03:02:00,VALID,915.815,VALID,0,VALID,88.4795,VALID,-0.0169808,VALID,20.3362,VALID,95,VALID,1.62852,
2004-03-06, 03:03:00,VALID,915.793,VALID,0,VALID,88.0968,VALID,0,VALID,20.3946,VALID,98,VALID,1.72283,
2004-03-06, 03:04:00,VALID,915.793,VALID,0,VALID,87.9823,VALID,0,VALID,20.4391,VALID,90,VALID,1.49089,
2004-03-06, 03:05:00,VALID,915.771,VALID,0,VALID,87.7102,VALID,0,VALID,20.4624,VALID,92,VALID,1.769,
2004-03-06, 03:06:00,VALID,915.753,VALID,0,VALID,87.6275,VALID,0,VALID,20.4818,VALID,103,VALID,1.55564,
2004-03-06, 03:07:00,VALID,915.763,VALID,0,VALID,87.5843,VALID,0,VALID,20.4945,VALID,104,VALID,1.4029,
2004-03-06, 03:08:00,VALID,915.763,VALID,0,VALID,87.6911,VALID,0,VALID,20.4945,VALID,97,VALID,1.44931,
2004-03-06, 03:09:00,VALID,915.763,VALID,0,VALID,87.7394,VALID,0,VALID,20.4885,VALID,110,VALID,1.13081,
2004-03-06, 03:10:00,VALID,915.756,VALID,0,VALID,87.9187,VALID,0,VALID,20.4686,VALID,119,VALID,1.51235,
2004-03-06, 03:11:00,VALID,915.759,VALID,0,VALID,88.0624,VALID,0,VALID,20.456,VALID,108,VALID,1.26482,
2004-03-06, 03:12:00,VALID,915.76,VALID,0,VALID,88.0446,VALID,0,VALID,20.4369,VALID,109,VALID,1.47141,
2004-03-06, 03:13:00,VALID,915.731,VALID,0,VALID,88.1591,VALID,0.0339617,VALID,20.4267,VALID,115,VALID,0.996911,
2004-03-06, 03:14:00,VALID,915.719,VALID,0,VALID,88.2722,VALID,0.0169808,VALID,20.4078,VALID,120,VALID,1.43924,
2004-03-06, 03:15:00,VALID,915.701,VALID,0,VALID,88.4503,VALID,0,VALID,20.3688,VALID,118,VALID,1.95022,
2004-03-06, 03:16:00,VALID,915.685,VALID,0,VALID,88.7453,VALID,0,VALID,20.3402,VALID,119,VALID,1.47496,
2004-03-06, 03:17:00,VALID,915.676,VALID,0,VALID,88.8534,VALID,-0.0169808,VALID,20.3047,VALID,109,VALID,1.79669,
2004-03-06, 03:18:00,VALID,915.658,VALID,0,VALID,89.1369,VALID,-0.0169808,VALID,20.259,VALID,119,VALID,1.34933,
2004-03-06, 03:19:00,VALID,915.642,VALID,0,VALID,89.2654,VALID,0,VALID,20.217,VALID,124,VALID,1.66235,
2004-03-06, 03:20:00,VALID,915.645,VALID,0,VALID,89.3137,VALID,0,VALID,20.2137,VALID,121,VALID,1.52998,
2004-03-06, 03:21:00,VALID,915.654,VALID,0,VALID,89.3417,VALID,0.0169808,VALID,20.1906,VALID,118,VALID,1.32794,
2004-03-06, 03:22:00,VALID,915.66,VALID,0,VALID,89.4777,VALID,0,VALID,20.1914,VALID,106,VALID,1.20909,
2004-03-06, 03:23:00,VALID,915.663,VALID,0,VALID,89.6176,VALID,-0.0339617,VALID,20.1556,VALID,114,VALID,1.36328,
2004-03-06, 03:24:00,VALID,915.65,VALID,0,VALID,89.5985,VALID,-0.0169808,VALID,20.1367,VALID,104,VALID,1.29968,
2004-03-06, 03:25:00,VALID,915.649,VALID,0,VALID,89.4879,VALID,0,VALID,20.1529,VALID,101,VALID,0.879906,
2004-03-06, 03:26:00,VALID,915.643,VALID,0,VALID,89.7359,VALID,0.0169808,VALID,20.1298,VALID,101,VALID,0.889137,
2004-03-06, 03:27:00,VALID,915.627,VALID,0,VALID,89.9698,VALID,-0.0169808,VALID,20.091,VALID,102,VALID,0.448438,
2004-03-06, 03:28:00,VALID,915.61,VALID,0,VALID,90.2458,VALID,0.0169808,VALID,20.052,VALID,124,VALID,1.29524,
2004-03-06, 03:29:00,VALID,915.596,VALID,0,VALID,90.4708,VALID,-0.0339617,VALID,20.0172,VALID,118,VALID,1.63785,
2004-03-06, 03:30:00,VALID,915.59,VALID,0,VALID,90.6489,VALID,-0.0169808,VALID,19.9814,VALID,127,VALID,1.41172,
2004-03-06, 03:31:00,VALID,915.59,VALID,0,VALID,90.921,VALID,0,VALID,19.9263,VALID,125,VALID,1.69132,
2004-03-06, 03:32:00,VALID,915.576,VALID,0,VALID,91.0761,VALID,0.0169808,VALID,19.8779,VALID,131,VALID,1.87191,
2004-03-06, 03:33:00,VALID,915.577,VALID,0,VALID,91.1715,VALID,0,VALID,19.8587,VALID,134,VALID,1.75781,
2004-03-06, 03:34:00,VALID,915.564,VALID,0,VALID,91.2186,VALID,0,VALID,19.8326,VALID,126,VALID,1.45461,
2004-03-06, 03:35:00,VALID,915.556,VALID,0,VALID,91.2287,VALID,0,VALID,19.8361,VALID,104,VALID,1.18598,
2004-03-06, 03:36:00,VALID,915.565,VALID,0,VALID,91.4042,VALID,0,VALID,19.7869,VALID,119,VALID,1.07969,
2004-03-06, 03:37:00,VALID,915.555,VALID,0,VALID,91.6318,VALID,-0.0169808,VALID,19.7522,VALID,120,VALID,1.17842,